This is the latest recevied weather packets stored in our database for station/object KM4KMS. If no packets are shown the sender has not sent any weather packets the latest 10 day(s).
| Time | Temp. | Humidity | Pressure | Rain* | Wind** | Luminosity | Snow |
|---|---|---|---|---|---|---|---|
| 1777598446 | 10° C | 70% | 1014.9 hPa | 0 mm | - | 0 W/m² | - |
| 1777598144 | 9.44° C | 73% | 1014.8 hPa | 0 mm | - | 0 W/m² | - |
| 1777597839 | 9.44° C | 72% | 1014.8 hPa | 0 mm | - | 0 W/m² | - |
| 1777597533 | 10° C | 69% | 1014.6 hPa | 0 mm | - | 0 W/m² | - |
| 1777597230 | 10.56° C | 67% | 1014.9 hPa | 0 mm | - | 0 W/m² | - |
| 1777596925 | 11.11° C | 59% | 1014.4 hPa | 0 mm | - | 0 W/m² | - |
| 1777596622 | 11.11° C | 58% | 1014.7 hPa | 0 mm | - | 0 W/m² | - |
| 1777596318 | 11.67° C | 57% | 1014.6 hPa | 0 mm | - | 0 W/m² | - |
| 1777596016 | 11.67° C | 59% | 1014.1 hPa | 0 mm | - | 0 W/m² | - |
| 1777595711 | 11.67° C | 53% | 1014.2 hPa | 0 mm | - | 0 W/m² | - |
| 1777595406 | 12.22° C | 54% | 1014.2 hPa | 0 mm | - | 2 W/m² | - |
| 1777595103 | 12.78° C | 58% | 1014.2 hPa | 0 mm | - | 5 W/m² | - |
| 1777594799 | 13.89° C | 54% | 1014.2 hPa | 0 mm | - | 7 W/m² | - |
| 1777594495 | 13.89° C | 52% | 1014.1 hPa | 0 mm | - | 10 W/m² | - |
| 1777594191 | 13.89° C | 52% | 1014.2 hPa | 0 mm | - | 15 W/m² | - |
| 1777593887 | 14.44° C | 51% | 1014.1 hPa | 0 mm | - | 18 W/m² | - |
| 1777593583 | 15° C | 51% | 1014.2 hPa | 0 mm | - | 20 W/m² | - |
| 1777593278 | 15.56° C | 49% | 1013.9 hPa | 0 mm | - | 25 W/m² | - |
| 1777592973 | 15° C | 49% | 1014.1 hPa | 0 mm | - | 29 W/m² | - |
| 1777592668 | 15° C | 46% | 1013.9 hPa | 0 mm | - | 33 W/m² | - |
| 1777592364 | 15° C | 47% | 1014.1 hPa | 0 mm | - | 38 W/m² | - |
| 1777592060 | 15.56° C | 47% | 1014 hPa | 0 mm | - | 52 W/m² | - |
| 1777591758 | 15° C | 45% | 1013.9 hPa | 0 mm | - | 61 W/m² | - |
| 1777591453 | 15.56° C | 48% | 1014 hPa | 0 mm | - | 72 W/m² | - |
| 1777591149 | 15° C | 45% | 1014 hPa | 0 mm | - | 80 W/m² | - |
* Rain latest hour (hover to see other rain measurements)
** Current wind speed in m/s (hover to see current wind gust speed)